Weather History for Carroll, IA

Change the Weather History Date:

Thursday, April 10, 2014

  Actual Average Record
Temperature  
Mean Temperature 54 °F -  
Max Temperature 66 °F 58 °F 86 °F (1977)
Min Temperature 41 °F 32 °F 12 °F (1952)
Degree Days  
Heating Degree Days 11    
Growing Degree Days 4 (Base 50)    
Moisture  
Dew Point 27 °F    
Average Humidity 37    
Maximum Humidity 70    
Minimum Humidity 15    
Precipitation  
Precipitation 0.00 in - - ()
Sea Level Pressure  
Sea Level Pressure 29.85 in    
Wind  
Wind Speed 15 mph (NNW)    
Max Wind Speed 22 mph    
Max Gust Speed 31 mph    
Visibility 10 miles    
Events      
Averages and records for this station are not official NWS values.
T = Trace of Precipitation, MM = Missing Value Source: NWS Daily Summary

Daily Weather History Graph

Daily Weather History Graph

Search for Another Location

Airport:

Trip Planner

Search our weather history database for the weather conditions in past years. The results will help you decide how hot, cold, wet, or windy it might be!

Date:

Astronomy

Apr. 10, 2014 Rise Set
Actual Time 6:46 AM CDT 7:54 PM CDT
Civil Twilight 6:18 AM CDT 8:23 PM CDT
Nautical Twilight 5:43 AM CDT 8:58 PM CDT
Astronomical Twilight 5:07 AM CDT 9:34 PM CDT
Moon 3:35 PM CDT (4/10) 4:14 AM CDT (4/10)
Length of Visible Light 14h 05m
Length of Day
13h 08m
Waxing Gibbous, 80% of the Moon is Illuminated
Apr 10
Waxing Gibbous
Apr 15
Full
Apr 22
Last Quarter
Apr 29
New
May 6
First Quarter

Hourly Weather History & Observations

Time (CDT) Temp. Windchill Dew Point Humidity Pressure Visibility Wind Dir Wind Speed Gust Speed Precip Events Conditions
12:15 AM 60.8 °F - 35.6 °F 39% 29.61 in 10.0 mi South 18.4 mph 24.2 mph N/A   Partly Cloudy
12:35 AM 59.0 °F - 35.6 °F 42% 29.60 in 10.0 mi South 19.6 mph - N/A   Clear
12:55 AM 59.0 °F - 35.6 °F 42% 29.60 in 10.0 mi SSW 19.6 mph - N/A   Partly Cloudy
1:15 AM 59.0 °F - 35.6 °F 42% 29.59 in 10.0 mi South 20.7 mph - N/A   Partly Cloudy
1:35 AM 59.0 °F - 35.6 °F 42% 29.59 in 10.0 mi SSW 18.4 mph 25.3 mph N/A   Clear
1:55 AM 59.0 °F - 35.6 °F 42% 29.59 in 10.0 mi SSW 17.3 mph - N/A   Clear
2:15 AM 59.0 °F - 35.6 °F 42% 29.58 in 10.0 mi SSW 16.1 mph 24.2 mph N/A   Clear
2:35 AM 57.2 °F - 35.6 °F 44% 29.58 in 10.0 mi SSW 18.4 mph - N/A   Clear
2:55 AM 57.2 °F - 37.4 °F 48% 29.58 in 10.0 mi SSW 18.4 mph - N/A   Clear
3:15 AM 57.2 °F - 37.4 °F 48% 29.65 in 10.0 mi West 12.7 mph 31.1 mph N/A   Scattered Clouds
3:35 AM 55.4 °F - 37.4 °F 51% 29.67 in 10.0 mi NW 11.5 mph - N/A   Mostly Cloudy
3:55 AM 55.4 °F - 37.4 °F 51% 29.69 in 10.0 mi NNE 19.6 mph - N/A   Mostly Cloudy
4:15 AM 53.6 °F - 37.4 °F 54% 29.70 in 10.0 mi NNE 21.9 mph 27.6 mph N/A   Mostly Cloudy
4:35 AM 53.6 °F - 37.4 °F 54% 29.72 in 10.0 mi North 18.4 mph - N/A   Scattered Clouds
4:55 AM 51.8 °F - 35.6 °F 54% 29.74 in 10.0 mi North 17.3 mph 23.0 mph N/A   Partly Cloudy
5:15 AM 50.0 °F - 33.8 °F 54% 29.74 in 10.0 mi North 17.3 mph - N/A   Partly Cloudy
5:35 AM 50.0 °F - 33.8 °F 54% 29.75 in 10.0 mi North 12.7 mph - N/A   Partly Cloudy
5:55 AM 48.2 °F - 33.8 °F 58% 29.76 in 10.0 mi North 10.4 mph - N/A   Clear
6:15 AM 48.2 °F - 33.8 °F 58% 29.77 in 10.0 mi North 10.4 mph - N/A   Clear
6:35 AM 44.6 °F 40.2 °F 32.0 °F 61% 29.79 in 10.0 mi NNW 8.1 mph - N/A   Clear
6:55 AM 42.8 °F 39.3 °F 32.0 °F 66% 29.80 in 10.0 mi NW 5.8 mph - N/A   Clear
7:15 AM 42.8 °F 38.0 °F 33.8 °F 70% 29.82 in 10.0 mi NW 8.1 mph - N/A   Clear
7:35 AM 42.8 °F 37.5 °F 33.8 °F 70% 29.84 in 10.0 mi NW 9.2 mph - N/A   Clear
7:55 AM 46.4 °F 40.7 °F 35.6 °F 66% 29.85 in 10.0 mi NNW 12.7 mph - N/A   Clear
8:15 AM 48.2 °F - 35.6 °F 62% 29.85 in 10.0 mi NNW 16.1 mph - N/A   Clear
8:35 AM 50.0 °F - 35.6 °F 58% 29.85 in 10.0 mi North 18.4 mph - N/A   Clear
8:55 AM 50.0 °F - 35.6 °F 58% 29.86 in 10.0 mi NNW 15.0 mph - N/A   Clear
9:15 AM 51.8 °F - 33.8 °F 50% 29.87 in 10.0 mi North 19.6 mph - N/A   Clear
9:35 AM 53.6 °F - 32.0 °F 44% 29.88 in 10.0 mi North 17.3 mph 24.2 mph N/A   Clear
9:55 AM 55.4 °F - 28.4 °F 36% 29.89 in 10.0 mi North 18.4 mph - N/A   Clear
10:15 AM 55.4 °F - 28.4 °F 36% 29.90 in 10.0 mi North 17.3 mph - N/A   Scattered Clouds
10:35 AM 57.2 °F - 26.6 °F 31% 29.91 in 10.0 mi North 17.3 mph - N/A   Partly Cloudy
10:55 AM 59.0 °F - 23.0 °F 25% 29.91 in 10.0 mi North 19.6 mph 28.8 mph N/A   Partly Cloudy
11:15 AM 57.2 °F - 23.0 °F 27% 29.92 in 10.0 mi North 16.1 mph 25.3 mph N/A   Partly Cloudy
11:35 AM 59.0 °F - 21.2 °F 23% 29.92 in 10.0 mi North 18.4 mph 28.8 mph N/A   Clear
11:55 AM 59.0 °F - 21.2 °F 23% 29.92 in 10.0 mi North 19.6 mph 26.5 mph N/A   Clear
12:15 PM 59.0 °F - 23.0 °F 25% 29.92 in 10.0 mi North 16.1 mph 27.6 mph N/A   Clear
12:35 PM 59.0 °F - 23.0 °F 25% 29.93 in 10.0 mi NNW 19.6 mph - N/A   Clear
12:55 PM 60.8 °F - 19.4 °F 20% 29.92 in 10.0 mi North 18.4 mph 25.3 mph N/A   Clear
1:15 PM 60.8 °F - 19.4 °F 20% 29.92 in 10.0 mi North 17.3 mph 26.5 mph N/A   Clear
1:35 PM 60.8 °F - 17.6 °F 19% 29.92 in 10.0 mi North 15.0 mph 24.2 mph N/A   Clear
1:55 PM 60.8 °F - 17.6 °F 19% 29.93 in 10.0 mi North 16.1 mph 24.2 mph N/A   Clear
2:15 PM 62.6 °F - 19.4 °F 19% 29.92 in 10.0 mi North 11.5 mph 20.7 mph N/A   Clear
2:35 PM 64.4 °F - 19.4 °F 18% 29.92 in 10.0 mi NNW 15.0 mph 21.9 mph N/A   Clear
2:55 PM 64.4 °F - 15.8 °F 15% 29.92 in 10.0 mi NNW 19.6 mph - N/A   Clear
3:15 PM 66.2 °F - 17.6 °F 15% 29.92 in 10.0 mi NNW 13.8 mph 23.0 mph N/A   Clear
3:35 PM 66.2 °F - 17.6 °F 15% 29.92 in 10.0 mi NNW 16.1 mph 25.3 mph N/A   Clear
3:55 PM 66.2 °F - 19.4 °F 17% 29.92 in 10.0 mi NNW 15.0 mph 21.9 mph N/A   Clear
4:15 PM 64.4 °F - 17.6 °F 16% 29.91 in 10.0 mi NNW 11.5 mph 21.9 mph N/A   Clear
4:35 PM 66.2 °F - 19.4 °F 17% 29.92 in 10.0 mi WNW 15.0 mph 23.0 mph N/A   Clear
4:55 PM 64.4 °F - 19.4 °F 18% 29.91 in 10.0 mi NW 13.8 mph 23.0 mph N/A   Clear
5:15 PM 64.4 °F - 19.4 °F 18% 29.91 in 10.0 mi NNW 15.0 mph 21.9 mph N/A   Clear
5:35 PM 64.4 °F - 19.4 °F 18% 29.91 in 10.0 mi NW 9.2 mph 17.3 mph N/A   Clear
5:55 PM 64.4 °F - 19.4 °F 18% 29.91 in 10.0 mi NW 15.0 mph - N/A   Clear
6:15 PM 64.4 °F - 19.4 °F 18% 29.92 in - West 8.1 mph - N/A   Clear
6:35 PM 64.4 °F - 17.6 °F 16% 29.92 in 10.0 mi NNW 13.8 mph - N/A   Clear
6:55 PM 64.4 °F - 17.6 °F 16% 29.93 in 10.0 mi NNW 11.5 mph - N/A   Clear
7:15 PM 60.8 °F - 19.4 °F 20% 29.94 in 10.0 mi NW 8.1 mph - N/A   Clear
7:35 PM 59.0 °F - 19.4 °F 22% 29.94 in 10.0 mi NNW 8.1 mph - N/A   Clear
7:55 PM 55.4 °F - 19.4 °F 25% 29.93 in 9.0 mi NNW 6.9 mph - N/A   Clear
8:15 PM 51.8 °F - 19.4 °F 28% 29.95 in 9.0 mi NW 5.8 mph - N/A   Clear
8:35 PM 53.6 °F - 19.4 °F 26% 29.96 in 10.0 mi NW 5.8 mph - N/A   Clear
8:55 PM 51.8 °F - 21.2 °F 30% 29.97 in 10.0 mi NW 5.8 mph - N/A   Clear
9:15 PM 50.0 °F - 23.0 °F 35% 29.98 in 10.0 mi WNW 4.6 mph - N/A   Clear
9:35 PM 48.2 °F - 23.0 °F 37% 29.98 in 10.0 mi WNW 5.8 mph - N/A   Partly Cloudy
9:55 PM 46.4 °F 43.5 °F 24.8 °F 43% 29.99 in 10.0 mi WNW 5.8 mph - N/A   Scattered Clouds
10:15 PM 46.4 °F 43.5 °F 24.8 °F 43% 29.99 in 10.0 mi WNW 5.8 mph - N/A   Scattered Clouds
10:35 PM 48.2 °F - 24.8 °F 40% 29.99 in 10.0 mi WNW 3.5 mph - N/A   Mostly Cloudy
10:55 PM 46.4 °F - 26.6 °F 46% 29.99 in 10.0 mi Calm Calm - N/A   Overcast
11:15 PM 44.6 °F - 24.8 °F 46% 30.00 in 10.0 mi Calm Calm - N/A   Overcast
11:35 PM 46.4 °F - 24.8 °F 43% 30.00 in 10.0 mi Calm Calm - N/A   Overcast
11:55 PM 41.0 °F - 26.6 °F 57% 30.00 in 9.0 mi Calm Calm - N/A   Overcast